Location: Erfurt
(50.9688°N, 11.0193°E)
Time: 09:56:38
(UTC+01:00)

ISS - Pass Details

Date: 12 January 2018
Orbit: 401 x 406 km, 51.6° (Epoch: 17 January)

Event Time Altitude Azimuth Distance (km) Brightness Sun altitude
Exits shadow 06:24:54 30° 231° (SW) 753 -2.8 -16.5°
Maximum altitude 06:25:26 32° 210° (SSW) 718 -2.8 -16.5°
Drops below altitude 10° 06:28:24 10° 145° (SE) 1,461 -0.3 -16.0°
Sets 06:30:35 0° 135° (SE) 2,319 1.1 -15.7°
